Regional Weather Roundup
Issued by NWS Charleston, WV

Home | Current Version | Previous Version | Text Only | Print | Product List | Glossary Off
Versions: 1 2 3 4 5 6 7 8 9 10 11 12 13 14 15 16 17 18 19 20 21 22 23 24 25 26 27 28 29 30 31 32 33 34 35 36 37 38 39 40 41 42 43 44 45 46 47 48 49 50

562
ASUS41 KRLX 301710
RWRRLX
West Virginia Regional Weather Roundup
National Weather Service Charleston WV
100 PM EDT THU MAR 30 2017

Note: "fair" indicates few or no clouds below 12,000 feet with no
significant weather and/or obstructions to visibility.

WVZ003-301800-
Northern Panhandle of West Virginia

CITY           SKY/WX    TMP DP  RH WIND       PRES   REMARKS
WHEELING       TSTM      49  41  74 E10       29.89F
$$

WVZ009-301800-
Northwest West Virginia

CITY           SKY/WX    TMP DP  RH WIND       PRES   REMARKS
PARKERSBURG    CLOUDY    62  52  69 VRB3      29.87F
$$

WVZ006-301800-
Western West Virginia

CITY           SKY/WX    TMP DP  RH WIND       PRES   REMARKS
HUNTINGTON     SUNNY     77  53  43 S8G21     29.79F
$$

WVZ015-301800-
West Central West Virginia

CITY           SKY/WX    TMP DP  RH WIND       PRES   REMARKS
CHARLESTON     PTSUNNY   76  52  43 SE13G23   29.84F
$$

WVZ022-031-301800-
North Central West Virginia

CITY           SKY/WX    TMP DP  RH WIND       PRES   REMARKS
CLARKSBURG     CLOUDY    58  51  78 N6        29.90F
MORGANTOWN     LGT RAIN  56  40  55 E5        29.94S
$$

WVZ025-035-042-045-301800-
Southern West Virginia

CITY           SKY/WX    TMP DP  RH WIND       PRES   REMARKS
BECKLEY        PTSUNNY   57  49  74 SE16      30.00F
LOGAN          PTSUNNY   73  54  49 VRB6G18   29.87F
BLUEFIELD      CLOUDY    55  49  80 S10       30.02F
LEWISBURG      CLOUDY    49  43  79 CALM      30.07F
$$

WVZ047-301800-
Northern Mountains of West Virginia

CITY           SKY/WX    TMP DP  RH WIND       PRES   REMARKS
ELKINS         CLOUDY    62  45  53 SE12G20   29.98F
$$

WVZ052-301800-
Eastern Panhandle of West Virginia

CITY           SKY/WX    TMP DP  RH WIND       PRES   REMARKS
MARTINSBURG    CLOUDY    49  31  49 SE9       30.16F
PETERSBURG     CLOUDY    56  40  56 SE9       30.08F
$$




USA.gov is the U.S. government's official web portal to all federal, state and local government web resources and services.